Weather History for Hyannis, MA

Change the Weather History Date:

Saturday, January 11, 2014

  Actual Average Record
Temperature  
Mean Temperature 48 °F -  
Max Temperature 54 °F 37 °F 56 °F (1975)
Min Temperature 41 °F 19 °F -6 °F (1968)
Degree Days  
Heating Degree Days 18    
Moisture  
Dew Point 47 °F    
Average Humidity 96    
Maximum Humidity 100    
Minimum Humidity 89    
Precipitation  
Precipitation 0.68 in - - ()
Sea Level Pressure  
Sea Level Pressure 29.80 in    
Wind  
Wind Speed 11 mph (South)    
Max Wind Speed 29 mph    
Max Gust Speed 38 mph    
Visibility 3 miles    
Events Fog , Rain    
Averages and records for this station are not official NWS values.
T = Trace of Precipitation, MM = Missing Value Source: NWS Daily Summary

Daily Weather History Graph

Daily Weather History Graph

Search for Another Location

Airport:

Trip Planner

Search our weather history database for the weather conditions in past years. The results will help you decide how hot, cold, wet, or windy it might be!

Date:

Astronomy

Jan. 11, 2014 Rise Set
Actual Time 7:07 AM EST 4:31 PM EST
Civil Twilight 6:36 AM EST 5:02 PM EST
Nautical Twilight 6:01 AM EST 5:36 PM EST
Astronomical Twilight 5:28 AM EST 6:10 PM EST
Moon 1:13 PM EST (1/11) 3:08 AM EST (1/11)
Length of Visible Light 10h 25m
Length of Day
9h 24m
Waxing Gibbous, 83% of the Moon is Illuminated
Jan 11
Waxing Gibbous
Jan 15
Full
Jan 24
Last Quarter
Jan 30
New
Feb 6
First Quarter

Hourly Weather History & Observations

Time (EST) Temp. Windchill Dew Point Humidity Pressure Visibility Wind Dir Wind Speed Gust Speed Precip Events Conditions
12:11 AM 41.0 °F 38.0 °F 39.9 °F 96% 30.27 in 1.8 mi SSW 4.6 mph - N/A   Overcast
12:53 AM 41.0 °F 36.4 °F 39.2 °F 93% 30.25 in 0.8 mi SSW 6.9 mph - 0.00 in   Mist
12:56 AM 41.0 °F 36.4 °F 39.9 °F 96% 30.26 in 0.8 mi SSW 6.9 mph - 0.00 in   Mist
1:56 AM 42.1 °F 37.1 °F 41.0 °F 96% 30.25 in 0.8 mi SSW 8.1 mph - 0.01 in   Mist
2:13 AM 44.1 °F 39.0 °F 43.0 °F 96% 30.24 in 1.0 mi SSW 9.2 mph - N/A   Mist
2:38 AM 44.1 °F 39.5 °F 43.0 °F 96% 30.22 in 0.8 mi South 8.1 mph - N/A   Mist
2:56 AM 44.1 °F 39.5 °F 43.0 °F 96% 30.22 in 0.8 mi South 8.1 mph - N/A   Mist
3:08 AM 44.1 °F 39.0 °F 43.0 °F 96% 30.21 in 1.0 mi SSW 9.2 mph - 0.00 in Rain Light Rain
3:44 AM 43.0 °F 38.8 °F 42.1 °F 97% 30.19 in 0.8 mi South 6.9 mph - 0.00 in   Mist
3:56 AM 44.1 °F 39.5 °F 43.0 °F 96% 30.18 in 0.8 mi South 8.1 mph - 0.00 in   Mist
4:56 AM 43.0 °F 38.8 °F 42.1 °F 97% 30.16 in 0.5 mi South 6.9 mph - N/A Fog Fog
5:18 AM 44.1 °F 40.1 °F 43.0 °F 96% 30.13 in 2.0 mi South 6.9 mph - N/A   Overcast
5:34 AM 44.1 °F 39.5 °F 43.0 °F 96% 30.13 in 1.5 mi South 8.1 mph - N/A   Overcast
5:44 AM 44.1 °F 40.8 °F 43.0 °F 96% 30.12 in 3.0 mi South 5.8 mph - 0.00 in Rain Light Rain
5:56 AM 44.1 °F 39.5 °F 43.0 °F 96% 30.12 in 1.0 mi South 8.1 mph - 0.00 in   Overcast
6:37 AM 46.0 °F 41.4 °F 45.0 °F 96% 30.09 in 10.0 mi South 9.2 mph - 0.00 in   Overcast
6:56 AM 48.0 °F - 45.0 °F 89% 30.09 in 10.0 mi South 11.5 mph 19.6 mph 0.00 in   Overcast
7:56 AM 48.0 °F - 45.0 °F 89% 30.06 in 10.0 mi South 12.7 mph 20.7 mph 0.00 in   Overcast
8:56 AM 46.9 °F - 45.0 °F 93% 30.02 in 10.0 mi South 9.2 mph 19.6 mph N/A   Overcast
9:56 AM 50.0 °F - 46.9 °F 89% 29.96 in 10.0 mi South 16.1 mph 25.3 mph N/A   Mostly Cloudy
10:04 AM 50.0 °F - 48.0 °F 93% 29.96 in 9.0 mi South 17.3 mph 27.6 mph 0.00 in Rain Light Rain
10:14 AM 50.0 °F - 48.0 °F 93% 29.95 in 9.0 mi South 11.5 mph 27.6 mph 0.00 in   Mostly Cloudy
10:27 AM 48.9 °F - 48.0 °F 97% 29.94 in 5.0 mi South 15.0 mph 24.2 mph 0.00 in   Overcast
10:56 AM 51.1 °F - 48.9 °F 92% 29.91 in 9.0 mi South 13.8 mph 23.0 mph 0.00 in   Overcast
11:13 AM 50.0 °F - 48.0 °F 93% 29.89 in 9.0 mi South 16.1 mph 28.8 mph N/A   Overcast
11:56 AM 48.9 °F - 46.9 °F 93% 29.84 in 8.0 mi SSW 18.4 mph 27.6 mph N/A   Overcast
12:46 PM 48.0 °F - 46.0 °F 93% 29.79 in 6.0 mi SSW 13.8 mph 23.0 mph 0.00 in   Overcast
12:56 PM 46.9 °F - 46.0 °F 97% 29.79 in 5.0 mi SSW 15.0 mph 21.9 mph 0.00 in   Overcast
1:56 PM 48.0 °F - 46.9 °F 96% 29.73 in 1.5 mi South 18.4 mph 28.8 mph 0.02 in Rain Light Rain
2:12 PM 48.9 °F - 48.0 °F 97% 29.71 in 0.8 mi South 20.7 mph 28.8 mph 0.01 in Rain Light Rain
2:22 PM 48.9 °F - 48.0 °F 97% 29.70 in 0.2 mi South 19.6 mph 26.5 mph 0.02 in Fog , Rain Light Rain
2:46 PM 50.0 °F - 48.9 °F 96% 29.68 in 1.5 mi South 20.7 mph 34.5 mph 0.08 in Rain Heavy Rain
2:56 PM 53.1 °F - 52.0 °F 96% 29.68 in 1.5 mi SSW 15.0 mph 27.6 mph 0.11 in Rain Light Rain
3:19 PM 52.0 °F - 51.1 °F 97% 29.66 in 0.5 mi South 13.8 mph 26.5 mph 0.03 in Fog , Rain Light Rain
3:22 PM 51.1 °F - 50.0 °F 96% 29.65 in 0.2 mi South 15.0 mph 26.5 mph 0.03 in Fog , Rain Light Rain
3:56 PM 51.1 °F - 51.1 °F 100% 29.61 in 0.2 mi South 18.4 mph 29.9 mph 0.04 in Fog , Rain Light Rain
4:26 PM 50.0 °F - 50.0 °F 100% 29.59 in 0.8 mi South 17.3 mph 31.1 mph 0.15 in Rain Heavy Rain
4:40 PM 51.1 °F - 50.0 °F 96% 29.57 in 0.2 mi South 17.3 mph 26.5 mph 0.15 in Fog Fog
4:56 PM 48.9 °F - 48.9 °F 100% 29.56 in 0.2 mi South 20.7 mph 31.1 mph 0.15 in Fog Fog
5:56 PM 48.9 °F - 48.0 °F 97% 29.51 in 0.2 mi South 18.4 mph 31.1 mph 0.01 in Fog Fog
6:56 PM 50.0 °F - 48.9 °F 96% 29.45 in 0.2 mi South 18.4 mph 28.8 mph N/A Fog Fog
7:54 PM 51.8 °F - 51.8 °F 100% 29.39 in 0.8 mi South 21.9 mph 38.0 mph 0.04 in Rain Heavy Rain
7:56 PM 52.0 °F - 51.1 °F 97% 29.40 in 0.5 mi South 21.9 mph 38.0 mph 0.04 in Fog , Rain Rain
8:13 PM 52.0 °F - 52.0 °F 100% 29.36 in 0.2 mi South 23.0 mph 36.8 mph 0.01 in Fog Fog
8:51 PM 51.8 °F - 51.8 °F 100% 29.42 in 1.0 mi SW 28.8 mph 38.0 mph 0.19 in Rain Heavy Rain
8:56 PM 54.0 °F - 53.1 °F 97% 29.42 in 1.8 mi SSW 23.0 mph 38.0 mph 0.22 in Rain Heavy Rain
9:52 PM 51.8 °F - 51.8 °F 100% 29.42 in 9.0 mi South 6.9 mph - 0.04 in Rain Light Rain
9:56 PM 52.0 °F - 51.1 °F 97% 29.42 in 8.0 mi South 8.1 mph - 0.04 in Rain Light Rain
10:56 PM 50.0 °F - 48.9 °F 96% 29.40 in 10.0 mi SSW 9.2 mph - 0.03 in Rain Light Rain
11:06 PM 48.9 °F - 48.0 °F 97% 29.39 in 4.0 mi South 6.9 mph - 0.00 in   Overcast
11:09 PM 48.0 °F - 48.0 °F 100% 29.39 in 2.0 mi South 9.2 mph - 0.00 in   Overcast
11:14 PM 46.9 °F - 46.0 °F 97% 29.39 in 0.8 mi South 6.9 mph - 0.00 in   Overcast
11:22 PM 45.0 °F 41.2 °F 44.1 °F 97% 29.38 in 0.5 mi South 6.9 mph - 0.00 in Fog Fog
11:29 PM 45.0 °F 40.6 °F 44.1 °F 97% 29.37 in 0.5 mi South 8.1 mph - 0.01 in Fog , Rain Light Rain
11:56 PM 46.9 °F - 46.0 °F 97% 29.35 in 0.8 mi South 11.5 mph - 0.01 in Rain Light Rain